COSMOS 1275 DEB, 13490

Orbit data source: Space-Track

COSMOS 1275 DEB, 13490 is space debris in LEO originally from a launch on Thu, 04 Jun 1981 UTC launched from the Plesetsk Missile And Space Complex (PKMTR). Debris objects in space refer to the collection of defunct objects orbiting the Earth. Examples of debris include non-operational satellites, rocket bodies, and fragments generated from explosions, collisions, or faulty payload assembly.

Loading next visibility...
Identifier
13490, 1981-053GL
Orbit
LEO
Country
Flag of CISCIS
Related business
Manufacturer
Unknown
Mission
Spacecraft
Bus & Motor
Unknown
Mass
Unknown
Launch date (UTC)
1981-06-04 (45 years ago)
Launch vehicle
Unknown
Launch site
Plesetsk Missile And Space Complex (PKMTR)
Object type
Payload
Rocket body
Debris
Shape & HBR
Unknown shape, 0.1 m
Radar Cross Section
Medium (>0.1 m² and <1 m²)

Expand to show TLE details & history
Last TLE update: 2 days ago

TLE from 2 days ago
0 COSMOS 1275 DEB
1 13490U 81053GL  26170.84647571  .00000325  00000-0  30508-3 0  9991
2 13490  82.8350 104.6835 0066637  83.4295 332.9355 13.77586033209544
Epoch: 2026-06-19T20:18Z
TLE epoch observation values (Epoch: 2026-06-19T20:18:55.501Z)
Latitude
55.45474°
Longitude
-97.65185°
Altitude
938.104 km
Speed
7.41 km/s
True Right ascension
07h 40m 35s
True Declination
55° 17' 52"
Sunlit
Object was in daylight at epoch
Visualization orbit readout
Latitude
Unknown
Longitude
Unknown
Altitude
Unknown
Speed
Unknown
Apparent Right ascension
Unknown
Apparent Declination
Unknown
Sunlit
N/A
Visualization observer readout
Local Sidereal Time
06:11:49
Azimuth
Unknown
Elevation
Unknown
Doppler factor
Unknown
Orbital elements
Apogee altitude
1,018.574 km
Perigee altitude
920.647 km
Semi-major axis
7,347.747 km
Eccentricity
0.00666
Inclination
82.835°
RAAN
104.6835°
Arg. of periapsis
83.4295°
True anomaly
332.58547°
Mean anomaly
332.9355°
Eccentric anomaly
332.76075°
Mean motion
3.44597 °/min
Orbital period
104.47 mins
BSTAR
0.00030508
Loading maneuver chart data...
Computing Atmospheric mass density...

Documentation

Showing up to 5 results
|